Погода в Камышине

Погода в Камышине : погода сейчас, прогноз погоды и архив. Всё, что Вы хотите узнать о погоде в Камышине!

Хотите узнать прогноз погоды в Камышине? Тогда Вам сюда: Погода в Камышине

Поиск расширенной информации на нашем сайте:

Полезная информация:

Другие новости

Новости СМИ2

Главная страница сайта

Новости сайта

03.07.2017

Напоминаем, что на нашем специализированном сайте Метеоцентр.Азия вы можете получить высокодетализированные автоматические прогнозы погоды по пунктам России, СНГ и мира в авиационном формате (включающие направление и скорость ветра, видимость, явления погоды, количество и форму облачности, нижнюю и верхнюю границу облачности).

Рекомендуем:

Погода в Камышине - сегодня

Время (UTC), дата Ветер
(°,м/с) 
Видим.   Явления Облачность Т
(°С)
Тd
(°С)
f(%) Тe
(°С)
Pmin
(гПа)
dP
(гПа)
Po
(мм)
O2
(г/м3)
Тmin Tmax R s Состояние
почвы
21 18.05.19 310 (СЗ) 20000 м    ясно 
+14 +0.9 41 +14  1013.7  -0.2  749  287           
00 19.05.19 300 (СЗ) 20000 м    1/0 средняя 
[Ac lent]
+12.8 +1.5 46 +12  1013  -0.7  749  288           
03 19.05.19 310 (СЗ) 10 км    ясно 
+13 +3 51 +13  1013.2  0.2  749  288  +11.8        сухая 
06 19.05.19 060 (СВ) 20000 м    ясно 
+20 +4.2 35 +20  1013.2  0.3  749  281           
09 19.05.19 350 (С) 20000 м    1/1 1000 м 
[Cu hum]
+22.6 +0 22 +23  1012.6  -0.4  749  279           
12 19.05.19 330 (СЗ) 4-10{10}  20000 м    1/1 1500 м 
[Cu hum]
+23 -1 20 +23  1012.2  -0.4  749  278           
15 19.05.19 330 (СЗ) 4{10}  20000 м    3/1 1500 м средняя 
[Cu hum|Ac cuf]
+22.1 +0.2 23 +22  1012.1  -0.2  748  279    +23.1       
18 19.05.19 010 (С) 20000 м    3/0 средняя 
[Ac trans]
+17.1 +0.7 33 +17  1014.1  1.7  750  284           
21 19.05.19 030 (СВ) 6-10{11}  20000 м    3/0 средняя 
[Ac trans]
+13.6 -2.2 33 +13  1016.3  751  289           
00 20.05.19 350 (С) 2{10}  20000 м    ясно 
+9.9 -1.3 46 +10  1017.6  752  293           
03 20.05.19 050 (СВ) 20000 м    ясно 
+10.6 +1.3 53 +10  1019.5  753  292  +8.5        сухая 
06 20.05.19 060 (СВ) 20000 м    ясно 
+12.8 +0 41 +13  1020.5  1.1  754  290           
09 20.05.19 080 (В) 20000 м    3/3 1000 м 
[Cu hum]
+15.3 +0 35 +16  1020.1  -0.2  754  288           
12 20.05.19 080 (В) 20000 м    3/3 1000 м 
[Cu hum]
+17.4 -0.7 29 +18  1019.2  -0.8  753  285           
15 20.05.19 060 (СВ) 20000 м    4/0 средняя, верхняя 
[Ac cuf|Ci fib]
+17.6 -0.1 30 +18  1018.9  -0.3  753  285    +19.1       
18 20.05.19 070 (В) 20000 м    4/0 верхняя 
[Ci fib]
+12.8 +2 48 +13  1020.7  1.6  754  290           
21 20.05.19 130 (ЮВ) 20000 м    ясно 
+11.6 +0.3 46 +13  1021.7  0.9  755  292           
00 21.05.19 тихо ()   20000 м    ясно 
+10.2 -1.4 44 +10  1022.2  0.4  755  294           
03 21.05.19 230 (ЮЗ) 20000 м    3/0 верхняя 
[Ci fib]
+11.5 +0.8 48 +12  1023  0.9  756  292  +8.1        сухая 
06 21.05.19 090 (В) 10 км    3/1 1000 м верхняя 
[Cu hum|Ci fib]
+17.2 -0.7 30 +18  1023.5  0.7  757  287           
09 21.05.19 130 (ЮВ) 20000 м    3/3 1000 м 
[Cu hum]
+18.5 -2.7 24 +19  1023.2  -0.2  756  286           
12 21.05.19 180 (Ю) 20000 м    4/1 1000 м верхняя 
[Cu hum|Ci fib]
+20.1 -1.7 23 +20  1022.1  -1  756  284           
15 21.05.19 180 (Ю) 20000 м    8/0 верхняя 
[Ci fib]
+19.4 -0.6 26 +20  1021.1  -1  755  284    +20.4       
18 21.05.19 230 (ЮЗ) 20000 м    6/0 верхняя 
[Ci fib]
+14.6 -0 37 +14  1021.3  0.1  755  289           
21 21.05.19 220 (ЮЗ) 20000 м    3/0 верхняя 
[Ci fib]
+13 -1.5 37 +12  1021.3  0.1  755  290           
Время (UTC), дата Ветер
(°,м/с) 
Видим.   Явления Облачность Т
(°С)
Тd
(°С)
f(%) Тe
(°С)
Pmin
(гПа)
dP
(гПа)
Po
(мм)
O2
(г/м3)
Тmin Tmax R s Состояние
почвы

Для получения пояснительной информации подведите курсор к названию столбца.

ПОГОДА в Камышине - архив

Всё, что Вы хотите узнать о погоде в Камышине - удобно и подробно!

Выберите нужную дату (начиная с 1 января 2018* года) и нажмите кнопку "Найти".
Будут отображены архивные сводки погоды по пункту Камышин, начиная с указанной даты.


Отображать данные в формате CSV (для использования в таблицах Excel)


Внимание! Наш архив погоды предназначен исключительно для личного некоммерческого использования в познавательных целях. Если Вам необходимы официальные справки о состоянии погоды (для производственных, юридических, коммерческих и т.п. целей), обращайтесь в органы Росгидромета.

*Примечание: данная дата относится к архиву по метеостанциям СССР (Россия, СНГ, Балтия).
Архив по метеостанциям Зарубежной Европы и Азии (кроме Китая) хранится 10 дней, по другим регионам земного шара (Китай, Африка, Америка, Австралия, Океания) - 1 день.

Камышин - район местоположения метеостанции


Название, широта, долгота, высота метеостанции:
Камышин 50.1°ш. 45.4°д. 119 м над ур. моря [Российская Федерация]

Дополнительная информация

В oтличие oт бoльшинства пoгoдных сайтoв мы публикуем пoдрoбную метеoинфoрмацию в детальнoм прoфессиoнальнoм фoрмате.

Характеристики температуры и влажнoсти вoздуха измеряются на высoте 2 м в тени вдали oт зданий и деревьев.
Скoрoсть ветра измеряется на высoте 10 м (на урoвне рoста челoвека скoрoсть ветра ниже в 1.5-2 раза). Если метеoстанция нахoдится в гoрoде или в лесу, тo скoрoсть ветра занижена на 2-4 м/с пo сравнению с oткрытым местoм. Скoрoсть ветра над акватoриями крупных рек и oзёр, а также на вершинах хoлмoв на 2-5 м/с выше, чем в oбычных услoвиях.
Атмoсфернoе давление в разных тoчках местнoсти мoжет значительнo oтличаться oт давления на метеoстанции, в зависимoсти oт услoвий рельефа (при пoдъёме на 10 м давление пoнижается примернo на 1 мм рт.ст.).